Location: Marne
(34.0056°N, 117.9064°W)
Time: 06:15:47
(UTC+00:00)

Okean-O - Pass Details

Date: 18 January 2020
Orbit: 639 x 640 km, 98.2° (Epoch: 17 February)

Event Time Altitude Azimuth Distance (km) Brightness Sun altitude
Rises 01:35:24 0° 156° (SSE) 2,929 6.0 -6.2°
Reaches altitude 10° 01:37:37 10° 152° (SSE) 2,024 5.1 -6.7°
Maximum altitude 01:41:56 56° 75° (ENE) 763 2.7 -7.5°
Drops below altitude 10° 01:46:16 10° 357° (N) 2,037 5.1 -8.3°
Sets 01:48:31 0° 353° (N) 2,950 5.9 -8.8°
